GEESAT-6 07

Last updated on Mon Oct 20 2025 00:02:06 GMT+0000 (Coordinated Universal Time)

1 65719U 25214H 25285.53223069 .00004382 00000+0 45322-3 0 9999 2 65719 49.9819 17.2536 0014670 5.4231 354.6867 14.91750974 2735
UTC large
Height (km)
Speed (km/s)
/
Latitude / Longitude
Inclination (degrees)
Orbital Period (minutes)
Azimuth
Elevation
Range (km)
Doppler Factor

Next 0 passes for location: London (51.5072 / 0.1276)

Sorry there are no passes over London.